Regional Weather Roundup
Issued by NWS Upton, NY

Current Version | Previous Version | Graphics & Text | Print | Product List | Glossary Off
Versions: 1 2 3 4 5 6 7 8 9 10 11 12 13 14 15 16 17 18 19 20 21 22 23 24 25 26 27 28 29 30 31 32 33 34 35 36 37 38 39 40 41 42 43 44 45 46 47 48 49 50

000
ASUS41 KOKX 010205
RWROKX

REGIONAL WEATHER ROUNDUP
NATIONAL WEATHER SERVICE NEW YORK NY
1000 PM EDT TUE SEP 30 2014

NOTE: "FAIR" INDICATES FEW OR NO CLOUDS BELOW 12,000 FEET WITH NO
SIGNIFICANT WEATHER AND/OR OBSTRUCTIONS TO VISIBILITY.

NYZ071-072-176-178-NJZ106-104-010300-
NEW YORK CITY METRO AREA


CITY           SKY/WX    TMP DP  RH WIND       PRES   REMARKS
CENTRAL PARK   CLOUDY    65  57  75 VRB5      30.00S
LAGUARDIA APRT CLOUDY    65  58  78 NE14      29.97S
KENNEDY INTL   CLOUDY    65  58  78 NE7       29.98S
NEWARK/LIBERTY MOCLDY    65  58  78 E7        29.98R
BRNX BOT. GARD   N/A     63  57  82 NE1       30.00S
TETERBORO      MOCLDY    65  57  75 NE6       29.97R
$$

NYZ177-179-078>081-010300-
LONG ISLAND NEW YORK

CITY           SKY/WX    TMP DP  RH WIND       PRES   REMARKS
FARMINGDALE    CLOUDY    64  59  83 NE7       29.98S
ISLIP          LGT RAIN  61  58  90 NE6       29.97R
SHIRLEY        CLOUDY    61  58  90 VRB5      29.99S
WESTHAMPTON    CLOUDY    61  57  87 E3        30.00R
MONTAUK POINT    N/A     60  57  89 NE8       30.00R
$$

NYZ052-065-067-010300-
HUDSON VALLEY

CITY           SKY/WX    TMP DP  RH WIND       PRES   REMARKS
WHITE PLAINS   MOCLDY    60  57  89 E6        29.99R
NEWBURGH       PTCLDY    59  57  94 NE6       30.01
MONTGOMERY     MOCLDY    60  57  89 N3        30.00R
POUGHKEEPSIE   PTCLDY    58  55  90 SE5       29.99R
ALBANY         MOCLDY    61  55  81 S6        30.00R
$$

NJZ001-105-106-008-010-013-015-019>022-104-010300-
NEW JERSEY

CITY           SKY/WX    TMP DP  RH WIND       PRES   REMARKS
NEWARK/LIBERTY MOCLDY    65  58  78 E7        29.98R
TETERBORO      MOCLDY    65  57  75 NE6       29.97R
CALDWELL       MOCLDY    62  56  80 CALM      29.99R
MORRISTOWN     PTCLDY    61  57  88 N3        29.99R
SOMERVILLE     PTCLDY    59  56  89 CALM      29.96R
LINDEN         CLOUDY    70  61  74 E6        29.99R
SUSSEX         CLOUDY    62  57  83 CALM      29.99R
ANDOVER          N/A     59  56  89 CALM      29.99R
TRENTON        PTCLDY    62  57  83 CALM      29.96S
MILLVILLE      CLEAR     63  59  87 NE7       29.94S
ATLANTIC CITY  PTCLDY    60  58  92 N6        29.94S
WRIGHTSTOWN    PTCLDY    61  60  96 NE5       29.94S
TOMS RIVER     CLOUDY    64  61  88 NE5       29.96S
BELMAR         CLOUDY    63  55  77 NE6       29.96S
$$

PAZ047>061-062-071-010300-
EASTERN PENNSYLVANIA

CITY           SKY/WX    TMP DP  RH WIND       PRES   REMARKS
PHILADELPHIA   MOCLDY    65  58  78 E8        29.97R
ALLENTOWN      CLOUDY    64  58  80 E7        29.97R
SCRANTON       MOCLDY    64  56  75 NE3       29.97R
$$

CTZ002-004>006-009-010-012-RIZ004-006-007-MAZ004-011-015-010300-
SOUTHERN NEW ENGLAND
 IN CT

CITY           SKY/WX    TMP DP  RH WIND       PRES   REMARKS
BRADLEY INTL   CLOUDY    61  55  81 NE7       30.01R
HARTFORD       CLOUDY    60  56  86 VRB7      30.02R
DANBURY        CLOUDY    59  55  87 E8        30.01S
WTRBRY/OXFORD  CLOUDY    57  54  88 NE9       30.01S
BRIDGEPORT     CLOUDY    62  58  86 NE9       30.00R
MERIDEN        LGT RAIN  61  56  83 N6        30.01R
NEW HAVEN      CLOUDY    63  58  83 E3        30.00R
CHESTER        CLOUDY    57  55  94 NE6       30.02R FOG
GROTON         CLOUDY    58  56  93 N8        29.98S
WILLIMANTIC    LGT RAIN  58  55  90 N3        30.02R

 IN RI

CITY           SKY/WX    TMP DP  RH WIND       PRES   REMARKS
PROVIDENCE     CLOUDY    57  54  89 N12       30.01F
BLOCK ISLAND   CLOUDY    59  54  82 NE12G18   29.99R
WESTERLY       CLOUDY    58  55  90 VRB7      29.99S

 IN MA

CITY           SKY/WX    TMP DP  RH WIND       PRES   REMARKS
BOSTON         CLOUDY    57  55  93 N9        30.03F
WORCESTER      LGT RAIN  54  54 100 NE7       30.04S FOG
WESTFIELD      CLOUDY    61  55  81 E3        30.02S
PROVINCETOWN   CLOUDY    61  57  88 NE13      30.00S
NANTUCKET      CLOUDY    62  61  96 N12       29.96S FOG
$$

ANZ330-335-338-340-345-350-353-355-010300-
COASTAL MARINE OBSERVATIONS


STATION/POSITION TIME  SKY/WX   TEMP    WIND        PRES    VSBY  WAVE
                                AIR SEA DIR/SP/G                  HT/PER
                 (UTC)          (F)     (DEG/KT/KT) (MB)    (MI)  (FT/S)
NY HARB ENTRANCE NOT AVBL
4S FIRE IS       0200               68                N/A           3/ 5
20S FIRE ISLAND  0200            63 67   60/ 19/ 21 1013.9          5/ 6
23SW MTP         0200                                 N/A           4/ 5
HUDSON CANYON    0200            66 69   50/ 16/ 19 1012.7          5/ 5
EXECUTION ROCKS  0200            65 69   60/ 14/ 17   N/A
WESTERN LI SOUND 0200            64      50/ 12/ 16   N/A           2/ 3
CENTRAL LI SOUND 0100            61 69   50/ 12/ 14   N/A           1/ 4
EASTERN LI SOUND 0100            61 67   40/ 12/ 16   N/A
ROBBINS REEF     0200            65      70/ 10/ 12 1013.7
$$


>>>>>>>>>>>>>>>>>>>>>>>>>>>> KEY <<<<<<<<<<<<<<<<<<<<<<<<<<<
>                                                          <
>     SKY/WX - SKY CONDITION/PRESENT WEATHER               <
>     TMP    - TEMPERATURE IN FAHRENHEIT                   <
>     DP     - DEWPOINT IN FAHRENHEIT                      <
>     RH     - RELATIVE HUMIDITY IN PERCENT                <
>     WIND   - DIRECTION AND SPEED IN MPH                  <
>     PRES   - MEAN SEA LEVEL PRESSURE IN INCHES OF HG     <
>     WCI    - WIND CHILL INDEX                            <
>     VSB    - VISIBILITY IN MILES                         <
>     HX     - HEAT INDEX                                  <
>     TC     - TEMPERATURE IN CELSIUS                      <
>     VRB    - VARIABLE WIND DIRECTION                     <
>                                                          <
>>>>>>>>>>>>>>>>>>>>>>>>>>>> KEY <<<<<<<<<<<<<<<<<<<<<<<<<<<




USA.gov is the U.S. government's official web portal to all federal, state and local government web resources and services.